• Em Portugal
  • Lista de países
  • Para 7 dias
  • Temperatura da água
  • Mapas de satélite
  • Mapa do tempo
  • Widgets de tempo
  • user-avatar
    Iniciar Sessão

    Previsão horária em A'ali

    Hoje, 23 Setembro, Sábado

    Tempo Temperatura Precipitação Vento Pressão Humidade
    00:00 +34°C° 0 mm 1 m/s 753 mmHg 47%
    01:00 +33°C° 0 mm 1 m/s 753 mmHg 47%
    02:00 +33°C° 0 mm 1 m/s 753 mmHg 48%
    03:00 +32°C° 0 mm 1 m/s 753 mmHg 48%
    04:00 +32°C° 0 mm 2 m/s 753 mmHg 47%
    05:00 +34°C° 0 mm 2 m/s 753 mmHg 47%
    06:00 +34°C° 0 mm 2 m/s 753 mmHg 47%
    07:00 +35°C° 0 mm 2 m/s 754 mmHg 43%
    08:00 +37°C° 0 mm 2 m/s 754 mmHg 39%
    09:00 +38°C° 0 mm 2 m/s 754 mmHg 34%
    10:00 +39°C° 0 mm 2 m/s 754 mmHg 32%
    11:00 +40°C° 0 mm 2 m/s 754 mmHg 29%
    12:00 +42°C° 0 mm 3 m/s 754 mmHg 27%
    13:00 +42°C° 0 mm 3 m/s 754 mmHg 28%
    14:00 +42°C° 0 mm 3 m/s 754 mmHg 29%
    15:00 +42°C° 0 mm 4 m/s 753 mmHg 30%
    16:00 +40°C° 0 mm 4 m/s 753 mmHg 36%
    17:00 +38°C° 0 mm 4 m/s 753 mmHg 42%
    18:00 +37°C° 0 mm 3 m/s 753 mmHg 48%
    19:00 +36°C° 0 mm 3 m/s 754 mmHg 51%
    20:00 +36°C° 0 mm 3 m/s 754 mmHg 53%
    21:00 +35°C° 0 mm 2 m/s 754 mmHg 55%
    22:00 +35°C° 0 mm 2 m/s 754 mmHg 56%
    23:00 +33°C° 0 mm 1 m/s 754 mmHg 57%

    Amanhã, 24 Setembro, Domingo

    Tempo Temperatura Precipitação Vento Pressão Humidade
    00:00 +33°C° 0 mm 1 m/s 754 mmHg 58%
    01:00 +32°C° 0 mm 1 m/s 754 mmHg 59%
    02:00 +32°C° 0 mm 1 m/s 754 mmHg 59%
    03:00 +32°C° 0 mm 1 m/s 754 mmHg 59%
    04:00 +32°C° 0 mm 1 m/s 754 mmHg 58%
    05:00 +32°C° 0 mm 1 m/s 754 mmHg 57%
    06:00 +32°C° 0 mm 1 m/s 755 mmHg 56%
    07:00 +33°C° 0 mm 1 m/s 755 mmHg 51%
    08:00 +36°C° 0 mm 2 m/s 755 mmHg 46%
    09:00 +37°C° 0 mm 2 m/s 755 mmHg 41%
    10:00 +38°C° 0 mm 2 m/s 755 mmHg 38%
    11:00 +39°C° 0 mm 2 m/s 755 mmHg 34%
    12:00 +40°C° 0 mm 2 m/s 755 mmHg 31%
    13:00 +40°C° 0 mm 2 m/s 754 mmHg 30%
    14:00 +40°C° 0 mm 2 m/s 754 mmHg 30%
    15:00 +40°C° 0 mm 3 m/s 753 mmHg 29%
    16:00 +39°C° 0 mm 3 m/s 753 mmHg 34%
    17:00 +38°C° 0 mm 3 m/s 753 mmHg 40%
    18:00 +37°C° 0 mm 4 m/s 753 mmHg 45%
    19:00 +36°C° 0 mm 3 m/s 754 mmHg 48%
    20:00 +36°C° 0 mm 3 m/s 754 mmHg 51%
    21:00 +35°C° 0 mm 3 m/s 755 mmHg 55%
    22:00 +35°C° 0 mm 2 m/s 754 mmHg 56%
    23:00 +34°C° 0 mm 2 m/s 754 mmHg 57%

    Depois de amanhã, 25 Setembro, Segunda-feira

    Tempo Temperatura Precipitação Vento Pressão Humidade
    00:00 +33°C° 0 mm 1 m/s 754 mmHg 58%
    01:00 +32°C° 0 mm 1 m/s 754 mmHg 60%
    02:00 +32°C° 0 mm 1 m/s 754 mmHg 61%
    03:00 +31°C° 0 mm 1 m/s 754 mmHg 63%
    04:00 +31°C° 0 mm 1 m/s 754 mmHg 63%
    05:00 +31°C° 0 mm 1 m/s 754 mmHg 63%
    06:00 +31°C° 0 mm 1 m/s 754 mmHg 64%
    07:00 +33°C° 0 mm 1 m/s 755 mmHg 57%
    08:00 +34°C° 0 mm 1 m/s 755 mmHg 51%
    09:00 +36°C° 0 mm 1 m/s 755 mmHg 45%
    10:00 +37°C° 0 mm 1 m/s 755 mmHg 41%
    11:00 +37°C° 0 mm 1 m/s 755 mmHg 37%
    12:00 +39°C° 0 mm 1 m/s 754 mmHg 33%
    13:00 +40°C° 0 mm 2 m/s 754 mmHg 31%
    14:00 +40°C° 0 mm 2 m/s 754 mmHg 30%
    15:00 +40°C° 0 mm 3 m/s 753 mmHg 28%
    16:00 +39°C° 0 mm 3 m/s 753 mmHg 33%
    17:00 +38°C° 0 mm 3 m/s 753 mmHg 37%
    18:00 +37°C° 0 mm 3 m/s 754 mmHg 42%
    19:00 +36°C° 0 mm 3 m/s 754 mmHg 45%
    20:00 +36°C° 0 mm 3 m/s 754 mmHg 48%
    21:00 +35°C° 0 mm 2 m/s 755 mmHg 51%
    22:00 +34°C° 0 mm 2 m/s 754 mmHg 52%
    23:00 +33°C° 0 mm 1 m/s 754 mmHg 54%

    26 Setembro, Terça-feira

    Tempo Temperatura Precipitação Vento Pressão Humidade
    00:00 +32°C° 0 mm 1 m/s 754 mmHg 55%
    01:00 +32°C° 0 mm 1 m/s 754 mmHg 54%
    02:00 +32°C° 0 mm 1 m/s 753 mmHg 54%
    03:00 +31°C° 0 mm 1 m/s 753 mmHg 54%
    04:00 +31°C° 0 mm 1 m/s 753 mmHg 53%
    05:00 +31°C° 0 mm 1 m/s 754 mmHg 53%
    06:00 +31°C° 0 mm 2 m/s 754 mmHg 53%
    07:00 +34°C° 0 mm 2 m/s 754 mmHg 47%
    08:00 +36°C° 0 mm 2 m/s 755 mmHg 42%
    09:00 +37°C° 0 mm 3 m/s 755 mmHg 37%
    10:00 +38°C° 0 mm 3 m/s 755 mmHg 33%
    11:00 +39°C° 0 mm 3 m/s 754 mmHg 29%
    12:00 +42°C° 0 mm 3 m/s 754 mmHg 25%
    13:00 +42°C° 0 mm 3 m/s 754 mmHg 24%
    14:00 +42°C° 0 mm 3 m/s 753 mmHg 24%
    15:00 +42°C° 0 mm 3 m/s 753 mmHg 23%
    16:00 +40°C° 0 mm 3 m/s 753 mmHg 27%
    17:00 +39°C° 0 mm 2 m/s 753 mmHg 31%
    18:00 +37°C° 0 mm 2 m/s 753 mmHg 36%
    19:00 +37°C° 0 mm 2 m/s 754 mmHg 38%
    20:00 +36°C° 0 mm 2 m/s 754 mmHg 41%
    21:00 +35°C° 0 mm 2 m/s 755 mmHg 43%
    22:00 +35°C° 0 mm 2 m/s 754 mmHg 45%
    23:00 +35°C° 0 mm 2 m/s 754 mmHg 46%

    27 Setembro, Quarta-feira

    Tempo Temperatura Precipitação Vento Pressão Humidade
    00:00 +34°C° 0 mm 2 m/s 754 mmHg 47%
    01:00 +34°C° 0 mm 2 m/s 754 mmHg 48%
    02:00 +32°C° 0 mm 1 m/s 753 mmHg 50%
    03:00 +31°C° 0 mm 1 m/s 753 mmHg 51%
    04:00 +31°C° 0 mm 1 m/s 754 mmHg 50%
    05:00 +31°C° 0 mm 1 m/s 754 mmHg 48%
    06:00 +31°C° 0 mm 1 m/s 755 mmHg 47%
    07:00 +33°C° 0 mm 1 m/s 755 mmHg 43%
    08:00 +35°C° 0 mm 1 m/s 756 mmHg 38%
    09:00 +36°C° 0 mm 1 m/s 756 mmHg 34%
    10:00 +37°C° 0 mm 1 m/s 756 mmHg 31%
    11:00 +39°C° 0 mm 1 m/s 755 mmHg 28%
    12:00 +40°C° 0 mm 1 m/s 755 mmHg 25%
    13:00 +40°C° 0 mm 2 m/s 755 mmHg 26%
    14:00 +40°C° 0 mm 3 m/s 754 mmHg 26%
    15:00 +40°C° 0 mm 3 m/s 754 mmHg 26%
    16:00 +39°C° 0 mm 3 m/s 754 mmHg 31%
    17:00 +38°C° 0 mm 3 m/s 754 mmHg 35%
    18:00 +37°C° 0 mm 3 m/s 755 mmHg 40%
    19:00 +37°C° 0 mm 3 m/s 755 mmHg 43%
    20:00 +36°C° 0 mm 3 m/s 755 mmHg 46%
    21:00 +36°C° 0 mm 3 m/s 755 mmHg 49%
    22:00 +35°C° 0 mm 3 m/s 755 mmHg 51%
    23:00 +35°C° 0 mm 3 m/s 754 mmHg 53%

    28 Setembro, Quinta-feira

    Tempo Temperatura Precipitação Vento Pressão Humidade
    00:00 +35°C° 0 mm 3 m/s 754 mmHg 55%
    01:00 +34°C° 0 mm 2 m/s 754 mmHg 56%
    02:00 +32°C° 0 mm 1 m/s 754 mmHg 56%
    03:00 +32°C° 0 mm 1 m/s 754 mmHg 57%
    04:00 +32°C° 0 mm 1 m/s 754 mmHg 56%
    05:00 +32°C° 0 mm 1 m/s 755 mmHg 56%
    06:00 +31°C° 0 mm 1 m/s 755 mmHg 55%
    07:00 +33°C° 0 mm 1 m/s 756 mmHg 50%
    08:00 +36°C° 0 mm 2 m/s 756 mmHg 45%
    09:00 +37°C° 0 mm 2 m/s 756 mmHg 41%
    10:00 +38°C° 0 mm 2 m/s 756 mmHg 38%
    11:00 +39°C° 0 mm 1 m/s 755 mmHg 34%
    12:00 +40°C° 0 mm 1 m/s 755 mmHg 31%
    13:00 +40°C° 0 mm 2 m/s 754 mmHg 30%
    14:00 +40°C° 0 mm 2 m/s 754 mmHg 29%
    15:00 +41°C° 0 mm 2 m/s 754 mmHg 28%
    16:00 +40°C° 0 mm 2 m/s 754 mmHg 31%
    17:00 +38°C° 0 mm 2 m/s 754 mmHg 34%
    18:00 +37°C° 0 mm 2 m/s 754 mmHg 37%
    19:00 +37°C° 0 mm 2 m/s 754 mmHg 38%
    20:00 +36°C° 0 mm 2 m/s 754 mmHg 39%
    21:00 +36°C° 0 mm 2 m/s 755 mmHg 39%
    22:00 +35°C° 0 mm 2 m/s 754 mmHg 42%
    23:00 +35°C° 0 mm 2 m/s 754 mmHg 44%
    Mostrar mais